Salt Lake City, UT

8:02 PM MST on February 20, 2017 (GMT -0700)
Salt Lake City International

Weather History for KSLC - January, 2012

Change the Weather History Date:

Sunday, January 29, 2012

  Actual Average Record
Temperature  
Mean Temperature 34 °F 30 °F  
Max Temperature 45 °F 39 °F 55 °F (1911)
Min Temperature 23 °F 22 °F -12 °F (1949)
Degree Days  
Heating Degree Days 31 35  
Month to date heating degree days 921 1034  
Since 1 July heating degree days 3125 3328  
Cooling Degree Days 0 0  
Month to date cooling degree days 0 0  
Year to date cooling degree days 0 0  
Moisture  
Dew Point 18 °F    
Average Humidity 50    
Maximum Humidity 78    
Minimum Humidity 22    
Precipitation  
Precipitation 0.00 in 0.04 in 0.51 in (2014)
Month to date precipitation 1.79 1.17  
Year to date precipitation 1.79 1.17  
Snow  
Snow 0.00 in 0.40 in 9.90 in (1980)
Month to date snowfall 6.9 11.8  
Since 1 July snowfall 12.5 34.0  
Snow Depth 0.00 in    
Sea Level Pressure  
Sea Level Pressure 30.40 in    
Wind  
Wind Speed 4 mph (SSE)    
Max Wind Speed 13 mph    
Max Gust Speed 14 mph    
Visibility 10 miles    
Events      
T = Trace of Precipitation, MM = Missing Value Source: NWS Daily Summary

Daily Weather History Graph

Daily Weather History Graph

Search for Another Location

Airport or City:

Trip Planner

Search our weather history database for the weather conditions in past years. The results will help you decide how hot, cold, wet, or windy it might be!

Date:

Astronomy

Jan. 29, 2012 Rise Set
Actual Time 7:41 AM MST 5:41 PM MST
Civil Twilight 7:12 AM MST 6:10 PM MST
Nautical Twilight 6:39 AM MST 6:43 PM MST
Astronomical Twilight 6:06 AM MST 7:15 PM MST
Moon 10:31 AM MST (1/29) No Moon Set
Length of Visible Light 10h 58m
Length of Day
10h 00m
Waxing Crescent, 37% of the Moon is Illuminated
Jan 29
Waxing Crescent
Jan 30
First Quarter
Feb 7
Full
Feb 14
Last Quarter
Feb 21
New

Hourly Weather History & Observations

Time (MST) Temp. Windchill Dew Point Humidity Pressure Visibility Wind Dir Wind Speed Gust Speed Precip Events Conditions
12:53 AM 28.0 °F - 16.0 °F 61% 30.58 in 10.0 mi Calm Calm - N/A   Clear
1:53 AM 27.0 °F 21.6 °F 16.0 °F 63% 30.57 in 10.0 mi SSW 4.6 mph - N/A   Clear
2:53 AM 24.1 °F 19.7 °F 17.1 °F 75% 30.57 in 10.0 mi South 3.5 mph - N/A   Clear
3:53 AM 25.0 °F 17.1 °F 17.1 °F 72% 30.54 in 10.0 mi SE 6.9 mph - N/A   Clear
4:53 AM 23.0 °F 15.8 °F 16.0 °F 74% 30.53 in 10.0 mi ESE 5.8 mph - N/A   Clear
5:53 AM 24.1 °F 17.0 °F 15.1 °F 69% 30.52 in 10.0 mi SE 5.8 mph - N/A   Clear
6:53 AM 25.0 °F 19.3 °F 15.1 °F 66% 30.53 in 10.0 mi ESE 4.6 mph - N/A   Partly Cloudy
7:53 AM 25.0 °F 18.1 °F 16.0 °F 69% 30.53 in 10.0 mi SE 5.8 mph - N/A   Partly Cloudy
8:53 AM 28.0 °F 21.7 °F 18.0 °F 66% 30.52 in 10.0 mi SSE 5.8 mph - N/A   Partly Cloudy
9:53 AM 30.2 °F 21.9 °F 19.4 °F 64% 30.43 in 10.0 mi SSE 9.2 mph - N/A   Mostly Cloudy
10:53 AM 35.1 °F 29.3 °F 17.1 °F 48% 30.48 in 10.0 mi SE 6.9 mph - N/A   Mostly Cloudy
11:53 AM 39.0 °F 34.8 °F 15.1 °F 38% 30.44 in 10.0 mi East 5.8 mph - N/A   Mostly Cloudy
12:53 PM 42.1 °F 38.4 °F 12.0 °F 29% 30.38 in 10.0 mi SE 5.8 mph - N/A   Mostly Cloudy
1:53 PM 44.1 °F - 9.0 °F 24% 30.32 in 10.0 mi Calm Calm - N/A   Mostly Cloudy
2:53 PM 44.1 °F 40.8 °F 18.0 °F 35% 30.32 in 10.0 mi NNW 5.8 mph - N/A   Mostly Cloudy
3:53 PM 39.9 °F 33.9 °F 19.9 °F 45% 30.31 in 10.0 mi NW 9.2 mph - N/A   Mostly Cloudy
4:53 PM 37.9 °F - 18.0 °F 45% 30.30 in 10.0 mi Calm Calm - N/A   Mostly Cloudy
5:53 PM 34.0 °F - 19.0 °F 54% 30.29 in 10.0 mi Calm Calm - N/A   Mostly Cloudy
6:53 PM 32.0 °F 28.7 °F 21.0 °F 64% 30.27 in 10.0 mi West 3.5 mph - N/A   Scattered Clouds
7:53 PM 28.9 °F - 21.9 °F 75% 30.26 in 10.0 mi Calm Calm - N/A   Scattered Clouds
8:53 PM 28.0 °F 22.8 °F 21.9 °F 78% 30.25 in 10.0 mi WNW 4.6 mph - N/A   Partly Cloudy
9:53 PM 28.0 °F - 21.9 °F 78% 30.22 in 10.0 mi Calm Calm - N/A   Partly Cloudy
10:53 PM 28.0 °F - 21.9 °F 78% 30.19 in 10.0 mi Calm Calm - N/A   Clear
11:53 PM 27.0 °F 23.0 °F 23.0 °F 85% 30.18 in 10.0 mi SSW 3.5 mph - N/A   Scattered Clouds